Regional Weather Roundup
Issued by NWS Cleveland, OH

Home | Current Version | Previous Version | Text Only | Print | Product List | Glossary Off
Versions: 1 2 3 4 5 6 7 8 9 10 11 12 13 14 15 16 17 18 19 20 21 22 23 24 25 26 27 28 29 30 31 32 33 34 35 36 37 38 39 40 41 42 43 44 45 46 47 48 49 50

000
ASUS41 KCLE 210610
RWRCLE
OHIO REGIONAL WEATHER ROUNDUP
NATIONAL WEATHER SERVICE CLEVELAND, OH
200 AM EDT SUN SEP 21 2014

NOTE: "FAIR" INDICATES FEW OR NO CLOUDS BELOW 12,000 FEET WITH NO
SIGNIFICANT WEATHER AND/OR OBSTRUCTIONS TO VISIBILITY.

OHZ001>008-015>018-024>027-034-035-043-044-210700-
   NORTHWEST OHIO

CITY           SKY/WX    TMP DP  RH WIND       PRES   REMARKS
DEFIANCE       MOCLDY   N/A N/A N/A SW8       29.79F
FINDLAY        CLOUDY    66  62  87 S9        29.80F
TOLEDO EXPRESS PTCLDY    64  63  96 S7        29.77F
TOLEDO EXEC    LGT RAIN  65  62  90 S10       29.79F
LIMA           CLOUDY    70  65  84 S10       29.81F
$$

OHZ009>014-019>023-028>033-038-089-210700-
   NORTHEAST OHIO

CITY           SKY/WX    TMP DP  RH WIND       PRES   REMARKS
CLE-HOPKINS    PTCLDY    65  60  84 S9        29.84F
CLE-LAKEFRONT  PTCLDY    68  60  75 S13       29.80F
CUY CO. ARPT   NOT AVBL
LORAIN-ELYRIA  MOCLDY    67  61  81 S8        29.82F
ASHTABULA      CLOUDY    67  62  84 SW8       29.84S
AKRON-CANTON   MOCLDY    68  61  78 SW9       29.86F
WOOSTER        MOCLDY    65  62  90 S5        29.86F
MANSFIELD      MOCLDY    67  64  90 S12       29.85F
YOUNGSTOWN     CLOUDY    68  62  81 S8        29.86F
$$

OHZ042-051>053-060>062-070>072-077>081-210700-
  SOUTHWEST OHIO

CITY           SKY/WX    TMP DP  RH WIND       PRES   REMARKS
CINC-COVINGTON MOCLDY    70  64  81 S8        29.90F
CINC-LUNKEN    MOCLDY    68  64  87 S6        29.89F
HAMILTON       MOCLDY    72  65  78 SW6       29.88F
DAYTON         MOCLDY    72  65  78 S12G21    29.87F
WRIGHT-PAT AFB MOCLDY    71  64  79 S13       29.86F
DAYTON GENERAL MOCLDY    70  65  84 S10       29.87F
WILMINGTON     MOCLDY    68  63  84 S10       29.89F
$$

OHZ036-037-039>041-045>050-054>059-063>069-073>076-082>088-210700-
  CENTRAL AND SOUTHEAST OHIO

CITY           SKY/WX    TMP DP  RH WIND       PRES   REMARKS
COLUMBUS       LGT RAIN  72  63  73 S8        29.88F
OSU AIRPORT    CLOUDY    71  64  78 S12       29.86F
BOLTON FIELD   CLOUDY    68  65  89 S9        29.87F
RICKENBACK AFB CLOUDY    68  63  84 S9        29.88F
NEWARK         MOCLDY    67  62  84 S6        29.87F
MARION         CLOUDY    67  63  87 S9        29.85F
LANCASTER      CLOUDY    71  63  75 S7        29.89F
ZANESVILLE     MOCLDY    70  62  76 S8        29.89F
NEW PHILLY     MOCLDY    69  63  81 S3        29.89F
$$



USA.gov is the U.S. government's official web portal to all federal, state and local government web resources and services.